021207 939  1.0+  0.1+    030201 048  0.4-  0.2+    030322 215  0.1+  0.5+  

021207 939  1.3+  0.3-    030201 048  0.2+  0.0     030322 215  0.5-  0.8+  

021207 H43  0.1+  0.2+    030201 048  0.4-  0.1-    030322 215  0.8+  0.5+  

021207 H43  0.1+  0.2+    030201 048  0.2+  0.2-    030322 A46  0.2+  1.0-  

021207 750  0.4+  0.2-    030201 048  0.6-  0.4-    030322 A46  1.5+  0.4-  

021207 750  0.9+  0.1+    030201 048  0.7-  0.4+    030322 A46  0.7+  0.3-  

021207 750  0.7+  0.1+    030201 048  0.1-  0.5+    030322 A46  0.5+  0.2-  

021207 340  0.2-  0.6+    030202 A02  0.6-  0.4+    030322 A18  0.5+  1.3+  

021207 340  0.3-  1.2+    030202 A02  0.7-  0.3+    030322 A46  1.3+  0.8-  

021207 340  0.3+  0.1-    030202 A02  0.7-  0.2+    030322 A46  1.1+  0.3-  

021207 340  0.0   0.4+    030202 A01  0.6-  0.6-    030322 213  0.6-  0.1+  

021207 458 (2.8+  0.2-)   030202 A01  0.5-  0.5-    030322 213 (1.8-  3.1-) 

021207 458  1.7+  0.6+    030202 A01  0.2-  0.6-    030322 213  1.1-  0.5+  

021209 A46  1.4-  0.2+    030202 H43  1.7-  0.5+    030322 A18 (3.0+  1.7+) 

021209 A46  0.7-  0.6-    030202 H43  1.1-  0.9+    030323 048  1.4+  0.4-  

021209 A46  0.2+  0.3-    030202 360  0.4-  0.2+    030323 048  0.6+  0.5-  

021209 A46  0.0   0.6+    030202 360  0.4-  0.2+    030323 048  0.6-  0.1+  

021209 A46  0.5+  0.5-    030202 J89 (3.6-  4.8+)   030323 048  0.6+  0.1+  

021209 A46  0.9+  1.1-    030202 J89  1.3-  0.9+    030323 048  0.7+  0.4+  

021209 A46  0.8+  0.2-    030204 333  1.1-  0.4+    030323 048  0.2-  0.4+  

021209 A46  0.6+  0.2-    030204 333  1.2-  0.4+    030323 048  1.4+  0.3+  

021209 A46  0.3+  0.5+    030204 333  1.6-  0.3+    030323 048  0.3-  0.0   

021209 A46  0.4+  0.0     030204 333  1.2-  0.5+    030323 048  0.8-  0.4+  

021210 340  0.5+  0.4+    030204 H43  0.2-  0.1+    030323 048  1.2-  0.1+  

021210 340  0.0   0.0     030204 H43  0.1-  0.4+    030323 A46  1.0+  0.4-  

021210 340  0.4+  0.2-    030204 H43  0.3-  0.4+    030323 A46  0.4+  0.7-  

021210 340  0.3-  0.2-    030205 H43  0.6-  0.5+    030323 A46  0.7+  0.7-  

021210 349  0.2+  0.1-    030205 H43  0.7-  0.2-    030323 A46  1.8+  0.1+  

021210 349  0.5+  0.3-    030205 235  1.0+  0.5+    030323 A46  0.5-  0.4-  

021210 349  0.4+  0.0     030206 322  0.0   0.6+    030324 H43 (0.3+  2.0+) 

021210 A46  0.9+  0.8-    030206 322  0.1-  0.3+    030324 H43 (1.0-  2.2+) 

021210 A46  1.5+  0.0     030206 349  0.4-  0.1+    030324 048  0.0   0.8-  

021210 A46  0.1-  0.3+    030206 349  0.3-  0.1-    030324 048  0.0   1.0-  

021210 A46  1.0+  0.2-    030206 349  0.2-  0.1+    030324 048  1.1+  0.8-  

021210 A46  0.3+  0.0     030206 349  0.4-  0.1+    030324 048  0.3+  0.4-  

021210 A46  0.8+  0.3-    030206 349  0.1-  0.3+    030324 048  1.3+  0.4-  

021210 A46  0.1+  0.5-    030207 048  0.1+  0.3-    030325 H43 (0.7-  2.0+) 

021210 A46  1.0+  0.0     030207 048  0.2+  0.0     030326 704 (0.1+  2.4+) 

021210 A46  0.5+  0.4-    030207 048  0.4+  0.0     030326 704 (0.5+  2.1+) 

021210 A46  0.9+  0.2+    030207 048  0.3+  0.4-    030326 704  1.2+  1.3+  

021210 A46  1.2+  0.2-    030207 048  0.4+  0.1+    030326 704  0.8+  0.0   

021210 A46  0.2+  0.4-    030207 048  0.6+  0.3+    030326 704  0.9+  0.1-  

021211 H43(16.5-  1.8+)   030207 048  0.5+  0.5-    030327 H43  1.3-  1.0+  

021211 704  0.4+  0.0     030207 048  0.2-  0.5-    030329 349  0.2-  0.4+  

021211 704  0.3-  0.3-    030207 048  0.2+  0.2+    030329 349  0.2-  0.7+  

021211 704  0.4-  0.1-    030207 048  0.0   0.2+    030329 349  0.3-  1.4+  

021211 704  0.5-  0.2-    030208 H41  0.2-  0.2+    030329 349  0.5-  0.2+  

021211 704  0.4-  0.1+    030208 H41 (2.2-  0.3-)   030329 360  0.3-  0.5+  

021211 A46  0.5+  0.1-    030208 213  1.0+  0.5+    030329 360  0.3-  0.4+  

021211 A46  0.7+  0.1+    030208 213  0.0   1.2+    030331 H43  0.2+  0.5-  

021211 A46  1.3+  0.1-    030208 213  0.8-  1.8+    030331 H43  1.4+  1.0+  

021211 A46  0.0   0.0     030208 939  1.2-  0.6+    030401 704  0.4+  0.8+  

021211 A46  1.0+  0.1-    030208 939  0.9-  0.4+    030401 704  0.0   1.0-  

021211 A46  1.0+  0.2+    030208 939  0.8-  0.3+    030401 704  0.8+  0.1+  

021211 A46  0.2+  0.2-    030209 232  0.4+  1.3+    030401 704  1.6+  0.4-  

021211 A46  0.8+  0.8-    030209 046  0.6+  0.2+    030403 212  1.0-  1.7+  

021211 A46  0.3+  0.2-    030209 046  0.2-  0.2+    030404 A46  1.4+  1.3-  

021211 A46  1.0+  0.3+    030209 232  0.1+  1.0+    030404 A46  0.9+  1.9-  

021211 A46  0.5+  0.2-    030209 046  0.8+  0.8+    030404 213 (3.4-  2.1-) 

021211 A46  0.5+  0.0     030209 046  0.0   0.2+    030404 213  1.3-  0.6-  

021211 J97 (0.9-  2.2+)   030209 232  0.1-  1.1+    030404 213  0.4+  1.1+  

021211 J97  1.0+  0.3-    030209 046  0.2+  0.3+    030404 232  0.4-  0.5-  

021213 360  0.6+  0.0     030209 A02  0.5-  0.1-    030404 232  0.2+  1.3-  

021213 360  0.9+  0.0     030209 A02  0.5-  0.2-    030420 213  0.5-  1.1+  

021214 H43 (5.1-  0.2+)   030209 A02  0.5-  0.0     030420 213  0.9-  0.5+  

021214 H43  0.6-  0.1+    030209 644  1.5-  0.2-    030420 213 (1.5-  2.9-) 

021214 H43  0.2-  0.2+    030209 644 (2.2-  0.9-)   030420 442  0.6-  0.7+  

021214 340  0.4+  0.2+    030209 644 (3.2-  0.7-)   030420 A32  1.5+  0.3-  

021214 340  0.2-  0.0     030209 340  0.2+  0.0     030421 H41  1.3+  0.3+  

021214 340  0.2-  0.2-    030209 340  0.3-  0.4+    030421 A32  0.6-  1.8+  

021215 458  0.5+  1.3+    030209 340  0.1-  0.3+    030421 A32  0.1+  0.7-  

021215 458 (0.0   2.0+)   030210 352  0.7-  0.7-    030430 213  1.0+  1.6-  

021215 H43  1.0+  0.1+    030210 352  1.0-  0.7-    030430 213  0.6+  1.7-  

021215 H43  0.0   0.1+    030210 213  0.7+  0.8+    030430 213 (1.9-  4.7+) 

021215 H43  1.1+  0.2+    030210 213  0.4+  0.2-    030430 442 (2.5+  0.7+) 

021221 H43  0.0   1.3+    030210 213  0.1+  0.3+    030502 360  0.1+  0.0   

021221 213  1.5+  0.1+    030211 H43  0.6-  0.9+    030502 360  0.1+  0.0   

021221 213 (1.3+  2.3-)   030211 H43  0.3+  0.6+    030502 A33  1.0+  1.0-  

021221 213 (1.8+  2.2+)   030211 H43  0.1+  0.8+    030502 A33  0.1+  0.3+  

021222 232  0.3-  0.7-    030211 H43  0.6-  0.1-    030523 360  1.1-  0.4+  

021222 232 (3.9-  1.7-)   030211 A18  0.4-  1.0+    030523 360  1.4-  1.2+  

021222 232 (6.0-  2.3-)   030211 A18  0.6-  0.8+    030523 360  1.8-  1.0+  

021222 619  0.5+  0.8+    030212 H43  0.3+  0.4-                            

NAKANO

         **** Don't distribute anyone except personal use only ****

                (C) Copyright 2004 OAA/ComputingSection

write mail from CFAD0::NAKANO on 2004-12-09 01:41:38(JST).

 



 155P/Shoemaker 3

Epoch 2003 Jan. 1.0 TT = JDT 2452640.5  

T 2002 Dec. 14.87262 TT                                 Nakano

q   1.8135530            (2000.0)            P               Q

n   0.05762248     Peri.   14.92741     -0.37622623     -0.91993491

a   6.6385734      Node    97.27080     +0.83826905     -0.38869034

e   0.7268159      Incl.    6.38613     +0.39466293     -0.05137690

P  17.10

From 282 observations 1986-2002, mean residual 0".76.



NAKANO

         **** Don't distribute anyone except personal use only ****

                (C) Copyright 2003 OAA/ComputingSection

write mail from CFAD0::NAKANO on 2003-01-07 05:12:31(JST).

 



 155P/Shoemaker 3 

Epoch 2003 Jan. 1.0 TT = JDT 2452640.5  

T 2002 Dec. 14.88307 TT                                 Nakano

q   1.8136046            (2000.0)            P               Q

n   0.05762238     Peri.   14.92931     -0.37628843     -0.91990894

a   6.6385811      Node    97.27277     +0.83824380     -0.38874899

e   0.7268084      Incl.    6.38642     +0.39465725     -0.05139816

P  17.10 (+/- 0.03 day)

From 75 observations 1986-2002, mean residual 0".82.



NAKANO

         **** Don't distribute anyone except personal use only ****

                (C) Copyright 2002 OAA/ComputingSection

write mail from CFAD0::NAKANO on 2002-09-17

